Terug naar catalogus

ONEWEB-0658

ActiefCommunicatiePO
NORAD 55819·PAYLOAD·🇬🇧 United Kingdom

Gelanceerd Mar 9, 2023 vanaf Cape Canaveral Space Force Station

Loading…

Volgende Passages (komende 24 uur)

TLE

VersSource: CelesTrak SupGP

Epoch: Sep 14, 2026, 16:58 UTC

1 55819C 23029Z   26257.70709907 -.00001688  00000+0 -42211-2 0  2578
2 55819  87.9118 287.1231 0001780  82.3673  28.8450 13.19729147    15

Volg ONEWEB-0658 in realtime met AllMySat

Download on the App Store